TimeCDT,TemperatureF,Dew PointF,Humidity,Sea Level PressureIn,VisibilityMPH,Wind Direction,Wind SpeedMPH,Gust SpeedMPH,PrecipitationIn,Events,Conditions,WindDirDegrees,DateUTC
12:52 AM,44.1,32.0,63,29.86,10.0,South,9.2,-,N/A,,Overcast,180,2013-03-10 06:52:00
1:52 AM,43.0,37.9,82,29.86,7.0,SSW,13.8,-,0.01,Rain,Light Rain,200,2013-03-10 07:52:00
3:52 AM,41.0,39.0,93,29.84,6.0,South,9.2,-,0.03,Rain,Light Rain,180,2013-03-10 08:52:00
4:52 AM,41.0,39.9,96,29.82,4.0,South,10.4,-,0.03,Rain,Light Rain,180,2013-03-10 09:52:00
5:03 AM,41.0,39.2,93,29.80,4.0,South,10.4,-,0.00,Rain,Light Rain,180,2013-03-10 10:03:00
5:18 AM,41.0,39.2,93,29.80,3.0,South,9.2,-,0.01,Rain,Light Rain,180,2013-03-10 10:18:00
5:30 AM,41.0,39.2,93,29.81,2.5,South,10.4,-,0.03,Rain,Light Rain,180,2013-03-10 10:30:00
5:34 AM,41.0,39.2,93,29.81,3.0,South,8.1,-,0.03,Rain,Light Rain,180,2013-03-10 10:34:00
5:43 AM,41.0,39.2,93,29.82,2.5,South,12.7,-,0.05,Rain,Rain,180,2013-03-10 10:43:00
5:52 AM,41.0,41.0,100,29.84,3.0,South,16.1,-,0.06,Rain,Light Rain,180,2013-03-10 10:52:00
6:01 AM,42.8,41.0,93,29.82,3.0,South,11.5,-,0.01,Rain,Light Rain,180,2013-03-10 11:01:00
6:09 AM,41.0,41.0,100,29.83,3.0,South,11.5,-,0.03,Rain,Light Rain,180,2013-03-10 11:09:00
6:20 AM,42.8,41.0,93,29.82,3.0,South,11.5,-,0.04,Rain,Light Rain,170,2013-03-10 11:20:00
6:52 AM,42.1,41.0,96,29.82,4.0,South,13.8,-,0.05,Rain,Light Rain,170,2013-03-10 11:52:00
7:52 AM,41.0,41.0,100,29.82,3.0,South,10.4,-,0.03,Rain,Light Rain,180,2013-03-10 12:52:00
8:01 AM,41.0,39.2,93,29.80,2.5,South,9.2,-,0.01,Rain,Light Rain,180,2013-03-10 13:01:00
8:08 AM,41.0,39.2,93,29.79,3.0,SE,9.2,-,0.01,Rain,Light Rain,140,2013-03-10 13:08:00
8:16 AM,41.0,39.2,93,29.79,2.5,SSE,11.5,-,0.01,Rain,Light Rain,160,2013-03-10 13:16:00
8:36 AM,41.0,39.2,93,29.78,3.0,SSE,4.6,-,0.01,,Overcast,150,2013-03-10 13:36:00
8:52 AM,39.9,39.0,97,29.81,3.0,South,5.8,-,0.01,,Overcast,170,2013-03-10 13:52:00
9:03 AM,41.0,39.2,93,29.80,3.0,South,6.9,-,N/A,,Overcast,190,2013-03-10 14:03:00
9:52 AM,41.0,39.9,96,29.82,3.0,SSE,4.6,-,N/A,,Overcast,160,2013-03-10 14:52:00
10:06 AM,39.2,39.2,100,29.80,3.0,SSE,9.2,-,N/A,,Mostly Cloudy,160,2013-03-10 15:06:00
10:52 AM,45.0,41.0,86,29.83,5.0,SSW,8.1,-,N/A,,Overcast,210,2013-03-10 15:52:00
11:52 AM,45.0,43.0,93,29.80,3.0,Calm,Calm,-,0.01,Rain,Light Rain,0,2013-03-10 16:52:00
12:11 PM,44.6,42.8,93,29.78,4.0,SE,4.6,-,0.00,,Overcast,140,2013-03-10 17:11:00
12:52 PM,43.0,42.1,97,29.82,3.0,SSE,4.6,-,0.00,,Overcast,150,2013-03-10 17:52:00
1:52 PM,44.1,43.0,96,29.78,4.0,Calm,Calm,-,0.00,,Overcast,0,2013-03-10 18:52:00
2:39 PM,44.6,42.8,93,29.74,1.8,Calm,Calm,-,0.01,Rain,Light Rain,0,2013-03-10 19:39:00
2:52 PM,44.1,43.0,96,29.75,1.2,Calm,Calm,-,0.02,Rain,Light Rain,0,2013-03-10 19:52:00
3:01 PM,44.6,42.8,93,29.72,1.0,NNE,4.6,-,0.00,Rain,Light Rain,20,2013-03-10 20:01:00
3:08 PM,44.6,44.6,100,29.73,1.8,ENE,3.5,-,0.00,,Overcast,70,2013-03-10 20:08:00
3:27 PM,44.6,44.6,100,29.71,2.0,ENE,5.8,-,0.00,Rain,Light Rain,60,2013-03-10 20:27:00
3:37 PM,46.4,44.6,93,29.72,2.5,Calm,Calm,-,0.00,Rain,Light Rain,0,2013-03-10 20:37:00
3:44 PM,44.6,44.6,100,29.73,1.8,South,3.5,-,0.01,Rain,Light Rain,170,2013-03-10 20:44:00
3:47 PM,42.8,42.8,100,29.74,0.5,SSE,4.6,-,0.01,Fog-Rain,Rain,150,2013-03-10 20:47:00
3:52 PM,43.0,43.0,100,29.75,0.2,SE,3.5,-,0.03,Rain,Rain,130,2013-03-10 20:52:00
3:55 PM,42.8,42.8,100,29.73,1.0,ESE,3.5,-,0.00,Rain,Rain,120,2013-03-10 20:55:00
4:37 PM,44.6,42.8,93,29.72,1.2,ENE,5.8,-,0.05,Rain,Light Rain,70,2013-03-10 21:37:00
4:48 PM,42.8,42.8,100,29.70,1.2,NE,6.9,-,0.07,Rain,Light Rain,50,2013-03-10 21:48:00
4:52 PM,43.0,42.1,97,29.71,1.5,NE,5.8,-,0.07,Rain,Light Rain,50,2013-03-10 21:52:00
5:10 PM,42.8,42.8,100,29.71,1.0,West,3.5,-,0.03,Rain,Rain,270,2013-03-10 22:10:00
5:17 PM,42.8,42.8,100,29.70,0.5,NNE,3.5,-,0.07,Fog-Rain,Heavy Rain,30,2013-03-10 22:17:00
5:34 PM,42.8,42.8,100,29.70,0.8,NE,3.5,-,0.09,Rain,Light Rain,50,2013-03-10 22:34:00
5:52 PM,42.1,42.1,100,29.71,0.8,ENE,3.5,-,0.11,Rain,Light Rain,70,2013-03-10 22:52:00
5:59 PM,42.8,42.8,100,29.69,0.8,NE,3.5,-,0.00,Rain,Light Rain,40,2013-03-10 22:59:00
6:11 PM,42.8,41.0,93,29.68,0.8,ENE,4.6,-,0.02,Rain,Light Rain,60,2013-03-10 23:11:00
6:41 PM,42.8,42.8,100,29.65,1.0,ENE,6.9,-,0.02,,Overcast,70,2013-03-10 23:41:00
6:46 PM,42.8,42.8,100,29.65,1.2,ENE,6.9,-,0.02,,Overcast,70,2013-03-10 23:46:00
6:52 PM,42.1,42.1,100,29.67,1.5,East,5.8,-,0.02,,Overcast,80,2013-03-10 23:52:00
6:56 PM,42.8,42.8,100,29.65,0.8,ENE,5.8,-,N/A,,Overcast,70,2013-03-10 23:56:00
7:16 PM,42.8,42.8,100,29.65,0.8,ENE,5.8,-,N/A,,Overcast,70,2013-03-11 00:16:00
7:25 PM,42.8,42.8,100,29.65,0.8,Calm,Calm,-,N/A,,Overcast,0,2013-03-11 00:25:00
7:52 PM,43.0,41.0,93,29.65,0.8,East,6.9,-,N/A,,Overcast,90,2013-03-11 00:52:00
7:59 PM,42.8,42.8,100,29.64,5.0,ESE,6.9,-,N/A,,Overcast,110,2013-03-11 00:59:00
8:47 PM,44.6,42.8,93,29.64,6.0,South,5.8,-,N/A,,Overcast,190,2013-03-11 01:47:00
8:52 PM,46.0,43.0,89,29.65,6.0,South,8.1,-,N/A,,Overcast,180,2013-03-11 01:52:00
9:52 PM,48.9,46.0,90,29.66,9.0,South,11.5,-,N/A,,Overcast,190,2013-03-11 02:52:00
10:00 PM,48.2,46.4,93,29.65,9.0,South,11.5,-,N/A,,Overcast,190,2013-03-11 03:00:00
11:07 PM,48.2,46.4,93,29.65,6.0,SSW,12.7,-,N/A,,Overcast,200,2013-03-11 04:07:00
11:34 PM,48.2,46.4,93,29.65,4.0,SSW,6.9,-,N/A,,Overcast,210,2013-03-11 04:34:00
11:52 PM,46.9,46.9,100,29.66,3.0,SSW,8.1,-,0.01,Rain,Light Rain,200,2013-03-11 04:52:00
12:00 AM,46.4,46.4,100,29.65,4.0,SSW,8.1,-,0.00,Rain,Light Rain,200,2013-03-11 05:00:00
12:41 AM,46.4,46.4,100,29.63,7.0,South,8.1,-,0.00,,Overcast,190,2013-03-11 05:41:00
12:52 AM,46.9,46.0,97,29.65,8.0,South,9.2,-,0.00,,Overcast,190,2013-03-11 05:52:00